COSMOS 1275 DEB, 12674

Orbit data source: Space-Track

COSMOS 1275 DEB, 12674 is space debris in LEO originally from a launch on Thu, 04 Jun 1981 UTC launched from the Plesetsk Missile And Space Complex (PKMTR). Debris objects in space refer to the collection of defunct objects orbiting the Earth. Examples of debris include non-operational satellites, rocket bodies, and fragments generated from explosions, collisions, or faulty payload assembly.

Loading next visibility...
Identifier
12674, 1981-053AE
Orbit
LEO
Country
Flag of CISCIS
Related business
Manufacturer
Unknown
Mission
Spacecraft
Bus & Motor
Unknown
Mass
Unknown
Launch date (UTC)
1981-06-04 (45 years ago)
Launch vehicle
Unknown
Launch site
Plesetsk Missile And Space Complex (PKMTR)
Object type
Payload
Rocket body
Debris
Shape & HBR
Unknown shape, 0.2 m
Radar Cross Section
Medium (>0.1 m² and <1 m²)

Expand to show TLE details & history
Last TLE update: 6 hours ago

TLE from 6 hours ago
0 COSMOS 1275 DEB
1 12674U 81053AE  26034.19145338  .00000801  00000-0  79588-3 0  9995
2 12674  82.9349 105.7286 0098622 357.5550  30.6349 13.74974687221414
Epoch: 2026-02-03T04:35Z
TLE epoch observation values (Epoch: 2026-02-03T04:35:41.572Z)
Latitude
28.57801°
Longitude
-92.7198°
Altitude
923.012 km
Speed
7.424 km/s
True Right ascension
07h 18m 19s
True Declination
28° 26' 13"
Sunlit
Object was in full shadow at epoch
Visualization orbit readout
Latitude
Unknown
Longitude
Unknown
Altitude
Unknown
Speed
Unknown
Apparent Right ascension
Unknown
Apparent Declination
Unknown
Sunlit
N/A
Visualization observer readout
Local Sidereal Time
12:03:14
Azimuth
Unknown
Elevation
Unknown
Doppler factor
Unknown
Orbital elements
Apogee altitude
1,051.471 km
Perigee altitude
906.357 km
Semi-major axis
7,357.051 km
Eccentricity
0.00986
Inclination
82.9349°
RAAN
105.7286°
Arg. of periapsis
357.555°
True anomaly
31.21693°
Mean anomaly
30.6349°
Eccentric anomaly
30.9253°
Mean motion
3.43944 °/min
Orbital period
104.67 mins
BSTAR
0.00079588
Loading maneuver chart data...
Computing Atmospheric mass density...

Documentation

Showing up to 5 results
|